This demonstration page uses our WeatherBlox Daily Observations layout. Learn more.

Left ArrowRight Arrow

39.12711, -84.51439

Hourly Observations for January 3, 2017

Temp ( °F °C ) Dew Point ( °F °C ) Humidity (%) Winds ( mph kmh ) Pressure ( in mb ) Visibility ( mi km ) Precip ( " mm )
12:17 am 00:17 Cloudy with Fog 49 9.4 49 9.4 100 100 N N/A 29.88 1012 1 1 N/A
12:53 am 00:53 Cloudy with Fog 50 10 50 10 100 100 N N/A 29.83 1010 1 1 0.00 0.00
12:56 am 00:56 Cloudy with Fog 50 10 50 10 100 100 N N/A 29.85 1011 0 0 N/A
1:10 am 01:10 Cloudy with Fog 50 10 50 10 100 100 N N/A 29.85 1011 0 0 N/A
1:26 am 01:26 Cloudy with Fog 48 9 48 9 100 100 N N/A 29.85 1011 0 0 N/A
1:42 am 01:42 Cloudy with Fog 50 10 50 10 100 100 N N/A 29.83 1010 0 0 N/A
1:53 am 01:53 Cloudy with Fog 50 10 50 10 100 100 N N/A 29.81 1010 1 1 N/A
2:30 am 02:30 Cloudy with Light Rain 50 10 50 10 100 100 N N/A 29.83 1010 2 2 N/A
2:34 am 02:34 Cloudy with Light Rain 50 10 50 10 100 100 N N/A 29.83 1010 2 3 N/A
2:43 am 02:43 Cloudy with Light Rain 51 10.6 51 10.6 100 100 N N/A 29.83 1010 2 2 0.02 0.51
2:53 am 02:53 Cloudy with Light Rain 50 10 50 10 100 100 N N/A 29.80 1009 1 2 0.03 0.76
3:19 am 03:19 Cloudy with Light Rain 52 11.1 52 11.1 100 100 N N/A 29.83 1010 3 4 0.04 1.02
3:35 am 03:35 Cloudy with Rain 51 10.6 51 10.6 100 100 N N/A 29.80 1009 2 3 0.07 1.78
3:45 am 03:45 Cloudy with Rain 52 11.1 52 11.1 100 100 N N/A 29.80 1009 2 3 0.09 2.29
3:53 am 03:53 Cloudy with Rain 52 11.1 52 11.1 100 100 N N/A 29.76 1008 2 2 0.10 2.54
4:42 am 04:42 Cloudy with Light Rain 52 11 52 11 100 100 N N/A 29.77 1008 2 3 N/A
4:45 am 04:45 Cloudy with Light Rain 52 11.1 52 11.1 100 100 N N/A 29.77 1008 2 3 0.12 3.05
4:53 am 04:53 Cloudy with Light Rain 52 11.1 52 11.1 100 100 N N/A 29.73 1007 1 2 0.13 3.30
5:00 am 05:00 Cloudy with Light Rain 52 11 52 11 100 100 N N/A 29.77 1008 1 1 N/A
5:21 am 05:21 Mostly Cloudy with Light Rain 52 11.1 52 11.1 100 100 N N/A 29.77 1008 1 2 0.01 0.25
5:30 am 05:30 Mostly Cloudy with Light Rain 52 11 52 11 100 100 N N/A 29.74 1007 1 1 N/A
5:46 am 05:46 Cloudy with Heavy Rain 52 11 52 11 100 100 N N/A 29.74 1007 1 2 N/A
5:53 am 05:53 Cloudy with Heavy Rain 52 11.1 52 11.1 100 100 N N/A 29.71 1006 1 2 0.12 3.05
6:01 am 06:01 Cloudy with Rain 52 11.1 52 11.1 100 100 N N/A 29.74 1007 2 2 0.03 0.76
6:13 am 06:13 Cloudy with Rain 52 11.1 52 11.1 100 100 N N/A 29.74 1007 2 3 0.05 1.27
6:20 am 06:20 Cloudy with Rain 52 11 52 11 100 100 N N/A 29.74 1007 2 3 N/A
6:35 am 06:35 Cloudy with Rain 54 12.2 54 12.2 100 100 N N/A 29.71 1006 2 3 0.10 2.54
6:44 am 06:44 Cloudy with Rain 52 11 52 11 100 100 N N/A 29.74 1007 2 3 N/A
6:53 am 06:53 Cloudy with Rain 52 11.1 52 11.1 100 100 N N/A 29.71 1006 2 3 0.15 3.81
7:43 am 07:43 Cloudy with Light Rain 52 11.1 52 11.1 100 100 N N/A 29.74 1007 2 3 0.07 1.78
7:53 am 07:53 Cloudy with Light Rain 52 11.1 52 11.1 100 100 N N/A 29.70 1006 2 3 0.07 1.78
8:00 am 08:00 Cloudy with Light Rain 52 11 52 11 100 100 N N/A 29.74 1007 2 3 N/A
8:53 am 08:53 Cloudy with Mist and Fog 53 11.7 53 11.7 100 100 W 6 9 29.70 1006 2 3 0.03 0.76
9:53 am 09:53 Cloudy 55 12.8 55 12.8 100 100 N N/A 29.68 1005 7 11 N/A
10:53 am 10:53 Cloudy 57 13.9 57 13.9 100 100 N N/A 29.69 1005 10 16 N/A
11:53 am 11:53 Cloudy 58 14.4 56 13.3 93 93 W 7 11 29.69 1005 10 16 N/A
12:53 pm 12:53 Cloudy with Light Rain 58 14.4 57 13.9 97 97 W 6 9 29.66 1004 10 16 0.00 0.00
1:53 pm 13:53 Cloudy with Light Rain 58 14.4 57 13.9 97 97 WSW 6 9 29.65 1004 10 16 0.00 0.00
2:29 pm 14:29 Cloudy with Light Rain 57 13.9 57 13.9 100 100 WSW 6 9 29.65 1004 4 6 0.01 0.25
2:46 pm 14:46 Cloudy with Rain 57 13.9 57 13.9 100 100 WSW 3 6 29.62 1003 2 3 0.05 1.27
2:53 pm 14:53 Cloudy with Rain 57 13.9 57 13.9 100 100 WSW 3 6 29.63 1004 2 3 0.06 1.52
3:11 pm 15:11 Cloudy with Light Rain 57 13.9 57 13.9 100 100 WSW 3 6 29.62 1003 2 3 0.01 0.25
3:23 pm 15:23 Cloudy with Light Rain 56 13.3 56 13.3 100 100 WSW 7 11 29.65 1004 2 3 0.02 0.51
3:53 pm 15:53 Cloudy with Rain 57 13.9 57 13.9 100 100 SW 6 9 29.62 1003 3 4 0.08 2.03
4:00 pm 16:00 Cloudy with Light Rain 57 14 57 14 100 100 SW 6 9 29.62 1003 4 6 N/A
4:53 pm 16:53 Cloudy with Rain 57 13.9 56 13.3 96 96 WSW 10 17 29.65 1004 3 4 0.07 1.78
5:22 pm 17:22 Cloudy with Light Rain 55 13 55 13 100 100 W 6 9 29.65 1004 4 6 N/A
5:53 pm 17:53 Cloudy with Light Rain 55 12.8 53 11.7 93 93 NW 12 19 29.68 1005 10 16 0.04 1.02
6:31 pm 18:31 Cloudy 53 11.7 50 10 89 89 WNW 5 7 29.68 1005 10 16 0.00 0.00
6:53 pm 18:53 Cloudy with Light Rain 52 11.1 50 10 93 93 W 6 9 29.70 1006 10 16 0.00 0.00
7:43 pm 19:43 Cloudy 51 10.6 49 9.4 92 92 VRB 3 6 29.74 1007 10 16 0.00 0.00
7:53 pm 19:53 Cloudy 51 10.6 48 8.9 89 89 WNW 6 9 29.71 1006 10 16 0.01 0.25
8:05 pm 20:05 Cloudy 51 10.6 48 8.9 89 89 WNW 13 20 29.74 1007 10 16 N/A
8:29 pm 20:29 Cloudy 50 10 47 8.3 89 89 W 13 20 29.74 1007 10 16 N/A
8:53 pm 20:53 Cloudy with Light Rain 50 10 47 8.3 89 89 W 10 17 29.72 1007 10 16 0.00 0.00
9:53 pm 21:53 Cloudy 49 9.4 47 8.3 93 93 NW 7 11 29.74 1007 10 16 0.00 0.00
10:53 pm 22:53 Cloudy 46 7.8 43 6.1 89 89 WNW 17 28 29.77 1008 10 16 0.00 0.00
11:29 pm 23:29 Cloudy 45 7.2 42 5.6 90 90 WNW 9 15 29.83 1010 8 13 N/A
11:41 pm 23:41 Cloudy 44 6.7 42 5.6 93 93 NW 12 19 29.83 1010 9 14 N/A
11:53 pm 23:53 Cloudy 44 6.7 40 4.4 85 85 WNW 13 20 29.80 1009 10 16 N/A

Powered by AerisWeather